Imperial, NE

1:50 AM MDT on May 01, 2017 (GMT -0600)
Imperial Municipal

Weather History for KIML - October, 2014

Change the Weather History Date:

Monday, October 20, 2014

  Actual Average Record
Temperature  
Mean Temperature 57 °F 49 °F  
Max Temperature 77 °F 63 °F 91 °F (2003)
Min Temperature 36 °F 35 °F 11 °F (1905)
Degree Days  
Heating Degree Days 8 16  
Month to date heating degree days 190 243  
Cooling Degree Days 0 0  
Month to date cooling degree days 0 3  
Year to date cooling degree days 955 960  
Growing Degree Days 6 (Base 50)    
Moisture  
Dew Point 37 °F    
Average Humidity 55    
Maximum Humidity 85    
Minimum Humidity 25    
Precipitation  
Precipitation 0.00 in 0.05 in 0.97 in (1963)
Sea Level Pressure  
Sea Level Pressure 30.08 in    
Wind  
Wind Speed 8 mph (SSW)    
Max Wind Speed 20 mph    
Max Gust Speed 24 mph    
Visibility 10 miles    
Events      
T = Trace of Precipitation, MM = Missing Value Source: NWS Daily Summary

Daily Weather History Graph

Daily Weather History Graph

Search for Another Location

Airport or City:

Trip Planner

Search our weather history database for the weather conditions in past years. The results will help you decide how hot, cold, wet, or windy it might be!

Date:

Astronomy

Oct. 20, 2014 Rise Set
Actual Time 7:02 AM MDT 5:58 PM MDT
Civil Twilight 6:35 AM MDT 6:26 PM MDT
Nautical Twilight 6:03 AM MDT 6:58 PM MDT
Astronomical Twilight 5:31 AM MDT 7:29 PM MDT
Moon 3:52 AM MDT (10/20) 4:23 PM MDT (10/20)
Length of Visible Light 11h 51m
Length of Day
10h 56m
Waning Crescent, 10% of the Moon is Illuminated
Oct 20
Waning Crescent
Oct 23
New
Oct 30
First Quarter
Nov 6
Full
Nov 14
Last Quarter

Hourly Weather History & Observations

Time (MDT) Temp. Windchill Dew Point Humidity Pressure Visibility Wind Dir Wind Speed Gust Speed Precip Events Conditions
12:53 AM 46.0 °F 43.9 °F 37.0 °F 71% 30.07 in 10.0 mi WNW 4.6 mph - N/A   Clear
1:53 AM 39.9 °F 35.1 °F 34.0 °F 79% 30.09 in 10.0 mi North 6.9 mph - N/A   Clear
2:53 AM 45.0 °F 42.6 °F 37.0 °F 74% 30.08 in 10.0 mi WNW 4.6 mph - N/A   Clear
3:53 AM 39.9 °F - 33.1 °F 77% 30.08 in 10.0 mi Calm Calm - N/A   Clear
4:53 AM 39.0 °F 36.8 °F 33.1 °F 79% 30.09 in 10.0 mi NW 3.5 mph - N/A   Clear
5:53 AM 37.9 °F 35.5 °F 33.1 °F 83% 30.11 in 10.0 mi West 3.5 mph - N/A   Clear
6:53 AM 37.9 °F 34.4 °F 32.0 °F 79% 30.14 in 10.0 mi West 4.6 mph - N/A   Clear
7:53 AM 41.0 °F 39.0 °F 35.1 °F 79% 30.15 in 10.0 mi WNW 3.5 mph - N/A   Clear
8:53 AM 51.8 °F - 39.2 °F 62% 30.16 in 10.0 mi Calm Calm - N/A   Clear
9:53 AM 62.1 °F - 43.0 °F 50% 30.14 in 10.0 mi Calm Calm - N/A   Clear
10:53 AM 66.2 °F - 44.6 °F 46% 30.16 in 10.0 mi Variable 5.8 mph - N/A   Clear
11:53 AM 71.1 °F - 43.0 °F 36% 30.11 in 10.0 mi SSE 10.4 mph - N/A   Clear
12:53 PM 73.9 °F - 37.9 °F 27% 30.08 in 10.0 mi South 12.7 mph - N/A   Clear
1:53 PM 75.0 °F - 39.0 °F 27% 30.06 in 10.0 mi SSE 12.7 mph - N/A   Clear
2:53 PM 75.9 °F - 39.0 °F 26% 30.03 in 10.0 mi South 13.8 mph 21.9 mph N/A   Clear
3:53 PM 75.9 °F - 39.0 °F 26% 30.03 in 10.0 mi South 15.0 mph - N/A   Clear
4:53 PM 75.0 °F - 37.9 °F 26% 30.03 in 10.0 mi South 13.8 mph - N/A   Clear
5:53 PM 69.1 °F - 37.9 °F 32% 30.05 in 10.0 mi South 10.4 mph - N/A   Clear
6:53 PM 62.1 °F - 37.0 °F 39% 30.06 in 10.0 mi South 9.2 mph - N/A   Clear
7:53 PM 62.1 °F - 36.0 °F 38% 30.06 in 10.0 mi South 11.5 mph - N/A   Clear
8:53 PM 62.1 °F - 37.0 °F 39% 30.04 in 10.0 mi South 9.2 mph - N/A   Clear
9:53 PM 57.9 °F - 37.0 °F 46% 30.04 in 10.0 mi South 11.5 mph - N/A   Clear
10:53 PM 55.9 °F - 37.0 °F 49% 30.03 in 10.0 mi South 10.4 mph - N/A   Clear
11:53 PM 53.1 °F - 37.0 °F 55% 30.03 in 10.0 mi SSW 6.9 mph - N/A   Clear